Time,TemperatureF,DewpointF,PressureIn,WindDirection,WindDirectionDegrees,WindSpeedMPH,WindSpeedGustMPH,Humidity,HourlyPrecipIn,Conditions,Clouds,dailyrainin,SolarRadiationWatts/m^2,SoftwareType,DateUTC
2013-03-26 00:03:00,37.0,17.0,29.38,West,277,4.0,21.0,43,0.00,,,0.01,0.000000,,2013-03-26 04:03:00,
2013-03-26 00:13:00,37.0,17.0,29.38,West,277,4.0,21.0,43,0.00,,,0.01,0.000000,,2013-03-26 04:13:00,
2013-03-26 00:43:00,35.0,18.0,29.39,West,261,4.0,9.0,50,0.00,,,0.01,0.000000,,2013-03-26 04:43:00,
2013-03-26 00:53:00,35.0,18.0,29.39,West,261,4.0,9.0,50,0.00,,,0.01,0.000000,,2013-03-26 04:53:00,
2013-03-26 01:02:00,35.0,18.0,29.39,West,261,4.0,9.0,50,0.00,,,0.01,0.000000,,2013-03-26 05:02:00,
2013-03-26 01:12:00,35.0,18.0,29.39,West,261,4.0,9.0,50,0.00,,,0.01,0.000000,,2013-03-26 05:12:00,
2013-03-26 01:42:00,37.0,19.0,29.40,West,275,6.0,15.0,47,0.00,,,0.01,0.000000,,2013-03-26 05:42:00,
2013-03-26 01:52:00,37.0,19.0,29.40,West,275,6.0,15.0,47,0.00,,,0.01,0.000000,,2013-03-26 05:52:00,
2013-03-26 02:02:00,37.0,19.0,29.40,West,275,6.0,15.0,47,0.00,,,0.01,0.000000,,2013-03-26 06:02:00,
2013-03-26 02:12:00,37.0,19.0,29.40,West,275,6.0,15.0,47,0.00,,,0.01,0.000000,,2013-03-26 06:12:00,
2013-03-26 02:43:00,38.0,21.0,29.41,West,266,5.0,14.0,49,0.00,,,0.01,0.000000,,2013-03-26 06:43:00,
2013-03-26 02:53:00,38.0,21.0,29.41,West,266,5.0,14.0,49,0.00,,,0.01,0.000000,,2013-03-26 06:53:00,
2013-03-26 03:02:00,38.0,21.0,29.41,West,266,5.0,14.0,49,0.00,,,0.01,0.000000,,2013-03-26 07:02:00,
2013-03-26 03:12:00,38.0,21.0,29.41,West,266,5.0,14.0,49,0.00,,,0.01,0.000000,,2013-03-26 07:12:00,
2013-03-26 03:43:00,36.0,20.0,29.41,West,261,5.0,14.0,52,0.00,,,0.01,0.000000,,2013-03-26 07:43:00,
2013-03-26 03:53:00,36.0,20.0,29.41,West,261,5.0,14.0,52,0.00,,,0.01,0.000000,,2013-03-26 07:53:00,
2013-03-26 04:02:00,36.0,20.0,29.41,West,261,5.0,14.0,52,0.00,,,0.01,0.000000,,2013-03-26 08:02:00,
2013-03-26 04:12:00,36.0,20.0,29.41,West,261,5.0,14.0,52,0.00,,,0.01,0.000000,,2013-03-26 08:12:00,
2013-03-26 04:42:00,36.0,21.0,29.41,WSW,258,5.0,12.0,55,0.00,,,0.01,0.000000,,2013-03-26 08:42:00,
2013-03-26 04:52:00,36.0,21.0,29.41,WSW,258,5.0,12.0,55,0.00,,,0.01,0.000000,,2013-03-26 08:52:00,
2013-03-26 05:02:00,36.0,21.0,29.41,WSW,258,5.0,12.0,55,0.00,,,0.01,0.000000,,2013-03-26 09:02:00,
2013-03-26 05:12:00,36.0,21.0,29.41,WSW,258,5.0,12.0,55,0.00,,,0.01,0.000000,,2013-03-26 09:12:00,
2013-03-26 05:43:00,34.0,22.0,29.42,WSW,248,3.0,11.0,60,0.00,,,0.01,0.000000,,2013-03-26 09:43:00,
2013-03-26 05:52:00,34.0,22.0,29.42,WSW,248,3.0,11.0,60,0.00,,,0.01,0.000000,,2013-03-26 09:52:00,
2013-03-26 06:03:00,34.0,22.0,29.42,WSW,248,3.0,11.0,60,0.00,,,0.01,0.000000,,2013-03-26 10:03:00,
2013-03-26 06:12:00,34.0,22.0,29.42,WSW,248,3.0,11.0,60,0.00,,,0.01,0.000000,,2013-03-26 10:12:00,
2013-03-26 06:43:00,33.0,23.0,29.43,West,279,2.0,8.0,66,0.00,,,0.00,0.000000,,2013-03-26 10:43:00,
2013-03-26 06:53:00,33.0,23.0,29.43,West,279,2.0,8.0,66,0.00,,,0.00,0.000000,,2013-03-26 10:53:00,
2013-03-26 07:03:00,33.0,23.0,29.43,West,279,2.0,8.0,66,0.00,,,0.00,0.000000,,2013-03-26 11:03:00,
2013-03-26 07:12:00,33.0,23.0,29.43,West,279,2.0,8.0,66,0.00,,,0.00,0.000000,,2013-03-26 11:12:00,
2013-03-26 07:43:00,31.0,23.0,29.45,ENE,69,2.0,6.0,73,0.00,,,0.00,0.000000,,2013-03-26 11:43:00,
2013-03-26 07:52:00,31.0,23.0,29.45,ENE,69,2.0,6.0,73,0.00,,,0.00,0.000000,,2013-03-26 11:52:00,
2013-03-26 08:03:00,31.0,23.0,29.45,ENE,69,2.0,6.0,73,0.00,,,0.00,0.000000,,2013-03-26 12:03:00,
2013-03-26 08:12:00,31.0,23.0,29.45,ENE,69,2.0,6.0,73,0.00,,,0.00,0.000000,,2013-03-26 12:12:00,
2013-03-26 08:43:00,37.0,25.0,29.47,West,260,3.0,8.0,61,0.00,,,0.00,54.000000,,2013-03-26 12:43:00,
2013-03-26 08:52:00,37.0,25.0,29.47,West,260,3.0,8.0,61,0.00,,,0.00,54.000000,,2013-03-26 12:52:00,
2013-03-26 09:03:00,37.0,25.0,29.47,West,260,3.0,8.0,61,0.00,,,0.00,54.000000,,2013-03-26 13:03:00,
2013-03-26 09:12:00,37.0,25.0,29.47,West,260,3.0,8.0,61,0.00,,,0.00,54.000000,,2013-03-26 13:12:00,
2013-03-26 09:42:00,43.0,24.0,29.48,West,278,6.0,11.0,47,0.00,,,0.00,264.000000,,2013-03-26 13:42:00,
2013-03-26 09:52:00,43.0,24.0,29.48,West,278,6.0,11.0,47,0.00,,,0.00,264.000000,,2013-03-26 13:52:00,
2013-03-26 10:02:00,43.0,24.0,29.48,West,278,6.0,11.0,47,0.00,,,0.00,264.000000,,2013-03-26 14:02:00,
2013-03-26 10:12:00,43.0,24.0,29.48,West,278,6.0,11.0,47,0.00,,,0.00,264.000000,,2013-03-26 14:12:00,
2013-03-26 10:42:00,45.0,22.0,29.49,NNW,327,8.0,21.0,40,0.00,,,0.00,470.000000,,2013-03-26 14:42:00,
2013-03-26 10:53:00,45.0,22.0,29.49,NNW,327,8.0,21.0,40,0.00,,,0.00,470.000000,,2013-03-26 14:53:00,
2013-03-26 11:02:00,45.0,22.0,29.49,NNW,327,8.0,21.0,40,0.00,,,0.00,470.000000,,2013-03-26 15:02:00,
2013-03-26 11:12:00,45.0,22.0,29.49,NNW,327,8.0,21.0,40,0.00,,,0.00,470.000000,,2013-03-26 15:12:00,
2013-03-26 11:43:00,47.0,23.0,29.50,NNW,346,8.0,20.0,38,0.00,,,0.00,596.000000,,2013-03-26 15:43:00,
2013-03-26 11:53:00,47.0,23.0,29.50,NNW,346,8.0,20.0,38,0.00,,,0.00,596.000000,,2013-03-26 15:53:00,
2013-03-26 12:03:00,47.0,23.0,29.50,NNW,346,8.0,20.0,38,0.00,,,0.00,596.000000,,2013-03-26 16:03:00,
2013-03-26 12:13:00,47.0,23.0,29.50,NNW,346,8.0,20.0,38,0.00,,,0.00,596.000000,,2013-03-26 16:13:00,
2013-03-26 12:43:00,49.0,24.0,29.50,NW,320,6.0,18.0,37,0.00,,,-99.99,531.000000,,2013-03-26 16:43:00,
2013-03-26 12:54:00,49.0,24.0,29.50,NW,320,6.0,18.0,37,0.00,,,-99.99,531.000000,,2013-03-26 16:54:00,
2013-03-26 13:03:00,49.0,24.0,29.50,NW,320,6.0,18.0,37,0.00,,,-99.99,531.000000,,2013-03-26 17:03:00,
2013-03-26 13:12:00,49.0,24.0,29.50,NW,320,6.0,18.0,37,0.00,,,-99.99,531.000000,,2013-03-26 17:12:00,
2013-03-26 13:42:00,46.0,22.0,29.51,WNW,302,6.0,51.0,39,0.00,,,-99.99,284.000000,,2013-03-26 17:42:00,
2013-03-26 13:53:00,46.0,22.0,29.51,WNW,302,6.0,51.0,39,0.00,,,-99.99,284.000000,,2013-03-26 17:53:00,
2013-03-26 14:03:00,46.0,22.0,29.51,WNW,302,6.0,51.0,39,0.00,,,-99.99,284.000000,,2013-03-26 18:03:00,
2013-03-26 14:12:00,46.0,22.0,29.51,WNW,302,6.0,51.0,39,0.00,,,-99.99,284.000000,,2013-03-26 18:12:00,
2013-03-26 14:42:00,46.0,22.0,29.51,WNW,298,7.0,20.0,39,0.00,,,0.00,172.000000,,2013-03-26 18:42:00,
2013-03-26 14:53:00,46.0,22.0,29.51,WNW,298,7.0,20.0,39,0.00,,,0.00,172.000000,,2013-03-26 18:53:00,
2013-03-26 15:03:00,46.0,22.0,29.51,WNW,298,7.0,20.0,39,0.00,,,0.00,172.000000,,2013-03-26 19:03:00,
2013-03-26 15:12:00,46.0,22.0,29.51,WNW,298,7.0,20.0,39,0.00,,,0.00,172.000000,,2013-03-26 19:12:00,
2013-03-26 15:42:00,49.0,25.0,29.52,WNW,299,9.0,21.0,38,0.00,,,0.00,348.000000,,2013-03-26 19:42:00,
2013-03-26 15:53:00,49.0,25.0,29.52,WNW,299,9.0,21.0,38,0.00,,,0.00,348.000000,,2013-03-26 19:53:00,
2013-03-26 16:02:00,49.0,25.0,29.52,WNW,299,9.0,21.0,38,0.00,,,0.00,348.000000,,2013-03-26 20:02:00,
2013-03-26 16:13:00,49.0,25.0,29.52,WNW,299,9.0,21.0,38,0.00,,,0.00,348.000000,,2013-03-26 20:13:00,
2013-03-26 16:43:00,46.0,22.0,29.52,NW,312,7.0,18.0,38,0.00,,,0.00,295.000000,,2013-03-26 20:43:00,
2013-03-26 16:53:00,46.0,22.0,29.52,NW,312,7.0,18.0,38,0.00,,,0.00,295.000000,,2013-03-26 20:53:00,
2013-03-26 17:02:00,46.0,22.0,29.52,NW,312,7.0,18.0,38,0.00,,,0.00,295.000000,,2013-03-26 21:02:00,
2013-03-26 17:13:00,46.0,22.0,29.52,NW,312,7.0,18.0,38,0.00,,,0.00,295.000000,,2013-03-26 21:13:00,
2013-03-26 17:43:00,47.0,22.0,29.53,WNW,293,7.0,20.0,37,0.00,,,0.00,213.000000,,2013-03-26 21:43:00,
2013-03-26 17:52:00,47.0,22.0,29.53,WNW,293,7.0,20.0,37,0.00,,,0.00,213.000000,,2013-03-26 21:52:00,
2013-03-26 18:02:00,47.0,22.0,29.53,WNW,293,7.0,20.0,37,0.00,,,0.00,213.000000,,2013-03-26 22:02:00,
2013-03-26 18:12:00,47.0,22.0,29.53,WNW,293,7.0,20.0,37,0.00,,,0.00,213.000000,,2013-03-26 22:12:00,
2013-03-26 18:42:00,47.0,21.0,29.55,WNW,298,6.0,20.0,36,0.00,,,0.00,136.000000,,2013-03-26 22:42:00,
2013-03-26 18:52:00,47.0,21.0,29.55,WNW,298,6.0,20.0,36,0.00,,,0.00,136.000000,,2013-03-26 22:52:00,
2013-03-26 19:01:00,47.0,21.0,29.55,WNW,298,6.0,20.0,36,0.00,,,0.00,136.000000,,2013-03-26 23:01:00,
2013-03-26 19:10:00,47.0,21.0,29.55,WNW,298,6.0,20.0,36,0.00,,,0.00,136.000000,,2013-03-26 23:10:00,
2013-03-26 19:43:00,44.0,19.0,29.58,WNW,302,7.0,18.0,37,0.00,,,0.00,41.000000,,2013-03-26 23:43:00,
2013-03-26 19:53:00,44.0,19.0,29.58,WNW,302,7.0,18.0,37,0.00,,,0.00,41.000000,,2013-03-26 23:53:00,
2013-03-26 20:02:00,44.0,19.0,29.58,WNW,302,7.0,18.0,37,0.00,,,0.00,41.000000,,2013-03-27 00:02:00,
2013-03-26 20:12:00,44.0,19.0,29.58,WNW,302,7.0,18.0,37,0.00,,,0.00,41.000000,,2013-03-27 00:12:00,
2013-03-26 20:42:00,43.0,19.0,29.60,WNW,295,5.0,18.0,38,0.00,,,0.00,2.000000,,2013-03-27 00:42:00,
2013-03-26 20:52:00,43.0,19.0,29.60,WNW,295,5.0,18.0,38,0.00,,,0.00,2.000000,,2013-03-27 00:52:00,
2013-03-26 21:02:00,43.0,19.0,29.60,WNW,295,5.0,18.0,38,0.00,,,0.00,2.000000,,2013-03-27 01:02:00,
2013-03-26 21:12:00,43.0,19.0,29.60,WNW,295,5.0,18.0,38,0.00,,,0.00,2.000000,,2013-03-27 01:12:00,
2013-03-26 21:43:00,40.0,20.0,29.63,WNW,296,4.0,16.0,44,0.00,,,0.00,0.000000,,2013-03-27 01:43:00,
2013-03-26 21:53:00,40.0,20.0,29.63,WNW,296,4.0,16.0,44,0.00,,,0.00,0.000000,,2013-03-27 01:53:00,
2013-03-26 22:03:00,40.0,20.0,29.63,WNW,296,4.0,16.0,44,0.00,,,0.00,0.000000,,2013-03-27 02:03:00,
2013-03-26 22:12:00,40.0,20.0,29.63,WNW,296,4.0,16.0,44,0.00,,,0.00,0.000000,,2013-03-27 02:12:00,
2013-03-26 22:43:00,39.0,20.0,29.66,NW,305,6.0,14.0,46,0.00,,,0.00,0.000000,,2013-03-27 02:43:00,
2013-03-26 22:53:00,39.0,20.0,29.66,NW,305,6.0,14.0,46,0.00,,,0.00,0.000000,,2013-03-27 02:53:00,
2013-03-26 23:02:00,39.0,20.0,29.66,NW,305,6.0,14.0,46,0.00,,,0.00,0.000000,,2013-03-27 03:02:00,
2013-03-26 23:12:00,39.0,20.0,29.66,NW,305,6.0,14.0,46,0.00,,,0.00,0.000000,,2013-03-27 03:12:00,
2013-03-26 23:43:00,39.0,22.0,29.67,WNW,286,4.0,12.0,50,0.00,,,0.00,0.000000,,2013-03-27 03:43:00,
2013-03-26 23:53:00,39.0,22.0,29.67,WNW,286,4.0,12.0,50,0.00,,,0.00,0.000000,,2013-03-27 03:53:00,